Location: Berlin
(42.3812°N, 71.6370°W)
Time: 05:05:33
(UTC+00:00)

Thor Agena Rocket - Pass Details

Date: 15 November 2025
Orbit: 755 x 802 km, 99.1° (Epoch: 09 December)

Event Time Altitude Azimuth Distance (km) Brightness Sun altitude
Rises 11:03:41 0° 13° (NNE) 3,297 6.7 -6.7°
Reaches altitude 10° 11:06:02 10° 13° (NNE) 2,357 6.0 -6.3°
Maximum altitude 11:11:14 84° 287° (WNW) 790 3.6 -5.4°
Drops below altitude 10° 11:16:20 10° 199° (SSW) 2,309 6.0 -4.5°
Sets 11:18:37 0° 198° (SSW) 3,225 6.8 -4.1°
